Location: Presov
(49.0000°N, 21.2500°E)
Time: 06:28:13
(UTC+02:00)

ISS - Pass Details

Date: 01 April 2019
Orbit: 408 x 410 km, 51.6° (Epoch: 22 April)

Event Time Altitude Azimuth Distance (km) Brightness Sun altitude
Rises 21:47:40 0° 290° (WNW) 2,339 1.1 -24.7°
Reaches altitude 10° 21:49:49 10° 283° (WNW) 1,475 -0.2 -25.0°
Enters shadow 21:51:18 23° 270° (W) 930 -1.6 -25.2°
